Location: algorfa
(38.0849°N, 0.7965°W)
Time: 09:57:48
(UTC+02:00)

ISS - Visible Passes

Search period start: 05 October 2022 00:00
Search period end: 15 October 2022 00:00
Orbit: 415 x 419 km, 51.6° (Epoch: 05 October)

Date Brightness Start Highest point End Pass type
(mag) Time Alt. Az. Time Alt. Az. Time Alt. Az.
05 Oct -3.6 20:32:26 10° NW 20:35:48 75° SW 20:38:43 13° SE visible
06 Oct -0.8 21:22:17 10° W 21:23:52 13° SW 21:25:27 10° SSW visible
07 Oct -1.4 20:32:55 10° WNW 20:35:38 23° SW 20:38:20 10° S visible
